Oakes, ND

2:42 PM CDT on April 28, 2017 (GMT -0500)
Oakes

Weather History for K2D5 - March, 2013

Change the Weather History Date:

Tuesday, March 5, 2013

  Actual Average (KP67) Record (KP67)
Temperature  
Mean Temperature 19 °F -  
Max Temperature 24 °F 23 °F 30 °F (1998)
Min Temperature 14 °F 6 °F -14 °F (1997)
Degree Days  
Heating Degree Days 46    
Moisture  
Dew Point 19 °F    
Average Humidity 99    
Maximum Humidity 100    
Minimum Humidity 93    
Precipitation  
Precipitation 0.48 in - - ()
Sea Level Pressure  
Sea Level Pressure 30.22 in    
Wind  
Wind Speed 20 mph (NNW)    
Max Wind Speed 29 mph    
Max Gust Speed 34 mph    
Visibility 6 miles    
Events Rain , Snow    
Averages and records for this station are not official NWS values.
T = Trace of Precipitation, MM = Missing Value Source: NWS Daily Summary

Daily Weather History Graph

Daily Weather History Graph

Search for Another Location

Airport or City:

Trip Planner

Search our weather history database for the weather conditions in past years. The results will help you decide how hot, cold, wet, or windy it might be!

Date:

Astronomy

Mar. 05, 2013 Rise Set
Actual Time 7:03 AM CST 6:24 PM CST
Civil Twilight 6:33 AM CST 6:54 PM CST
Nautical Twilight 5:58 AM CST 7:29 PM CST
Astronomical Twilight 5:23 AM CST 8:04 PM CST
Moon 2:31 AM CST (3/5) 11:50 AM CST (3/5)
Length of Visible Light 12h 21m
Length of Day
11h 21m
Last Quarter, 40% of the Moon is Illuminated
Mar 5
Last Quarter
Mar 11
New
Mar 19
First Quarter
Mar 27
Full
Apr 2
Last Quarter

Hourly Weather History & Observations

Time (CST) Temp. Windchill Dew Point Humidity Pressure Visibility Wind Dir Wind Speed Gust Speed Precip Events Conditions
12:15 AM 24.8 °F 12.9 °F 24.8 °F 100% 29.90 in 2.5 mi NNE 13.8 mph - 0.01 in Snow Light Snow
12:35 AM 24.8 °F 13.4 °F 24.8 °F 100% 29.91 in 2.0 mi NNE 12.7 mph - 0.02 in Snow Light Snow
12:55 AM 24.8 °F 11.1 °F 24.8 °F 100% 29.93 in 2.5 mi North 18.4 mph - 0.04 in Snow Light Snow
1:15 AM 23.0 °F 7.2 °F 23.0 °F 100% 29.94 in 1.8 mi North 23.0 mph - 0.02 in   Unknown
1:35 AM 23.0 °F 7.6 °F 23.0 °F 100% 29.95 in 1.2 mi North 21.9 mph - 0.07 in Snow Light Snow
1:55 AM 23.0 °F 8.0 °F 23.0 °F 100% 29.97 in 1.0 mi North 20.7 mph - 0.20 in Snow Light Snow
2:15 AM 23.0 °F 8.0 °F 23.0 °F 100% 29.99 in 1.8 mi North 20.7 mph - 0.04 in Snow Light Snow
2:35 AM 23.0 °F 8.3 °F 23.0 °F 100% 29.99 in 3.0 mi North 19.6 mph - 0.07 in Snow Light Snow
2:55 AM 23.0 °F 8.3 °F 23.0 °F 100% 30.01 in 3.0 mi North 19.6 mph - 0.10 in Snow Light Snow
3:15 AM 23.0 °F 8.3 °F 23.0 °F 100% 30.02 in 3.0 mi NNW 19.6 mph - N/A Snow Light Snow
3:35 AM 23.0 °F 9.2 °F 23.0 °F 100% 30.03 in 2.5 mi North 17.3 mph - 0.03 in Snow Light Snow
3:55 AM 23.0 °F 8.7 °F 23.0 °F 100% 30.03 in 4.0 mi North 18.4 mph - 0.03 in Snow Light Snow
4:15 AM 23.0 °F 8.3 °F 23.0 °F 100% 30.04 in 5.0 mi NNW 19.6 mph - N/A Rain Light Freezing Rain
4:35 AM 23.0 °F 8.0 °F 23.0 °F 100% 30.05 in 9.0 mi NNW 20.7 mph - N/A   Unknown
4:55 AM 23.0 °F 7.6 °F 23.0 °F 100% 30.07 in 5.0 mi NNW 21.9 mph - N/A Rain Light Freezing Rain
5:15 AM 23.0 °F 6.3 °F 23.0 °F 100% 30.08 in 4.0 mi NNW 26.5 mph 31.1 mph N/A Snow Light Snow
5:35 AM 23.0 °F 5.7 °F 23.0 °F 100% 30.09 in 3.0 mi NNW 28.8 mph - N/A Rain Light Freezing Rain
5:55 AM 21.2 °F 4.2 °F 21.2 °F 100% 30.10 in 2.5 mi NNW 25.3 mph 32.2 mph N/A Rain Light Freezing Rain
6:15 AM 21.2 °F 3.9 °F 21.2 °F 100% 30.12 in 3.0 mi NNW 26.5 mph 29.9 mph N/A Rain Light Freezing Rain
6:35 AM 21.2 °F 3.5 °F 21.2 °F 100% 30.13 in 2.5 mi NNW 27.6 mph 32.2 mph N/A Rain Light Freezing Rain
7:15 AM 19.4 °F 1.8 °F 19.4 °F 100% 30.15 in 3.0 mi NNW 25.3 mph 29.9 mph N/A Rain Light Freezing Rain
7:35 AM 17.6 °F 0.1 °F 17.6 °F 100% 30.16 in 2.5 mi NNW 23.0 mph - N/A Rain Light Freezing Rain
7:55 AM 15.8 °F -2.3 °F 15.8 °F 100% 30.18 in 4.0 mi NW 23.0 mph - N/A   Mist
8:15 AM 15.8 °F -2.7 °F 15.8 °F 100% 30.18 in 5.0 mi NNW 24.2 mph 28.8 mph N/A   Mist
8:35 AM 15.8 °F -1.9 °F 15.8 °F 100% 30.19 in 7.0 mi NNW 21.9 mph - N/A   Unknown
8:55 AM 17.6 °F 0.1 °F 17.6 °F 100% 30.21 in 3.0 mi NW 23.0 mph 28.8 mph N/A Snow Light Snow
9:15 AM 17.6 °F -1.6 °F 17.6 °F 100% 30.21 in 1.5 mi NNW 28.8 mph 33.4 mph N/A Rain Light Freezing Rain
9:35 AM 17.6 °F -0.6 °F 17.6 °F 100% 30.22 in 1.8 mi NNW 25.3 mph 32.2 mph N/A Rain Light Freezing Rain
9:55 AM 19.4 °F 1.4 °F 19.4 °F 100% 30.23 in 2.5 mi NNW 26.5 mph 29.9 mph N/A Rain Light Freezing Rain
10:15 AM 19.4 °F 1.4 °F 19.4 °F 100% 30.23 in 1.5 mi NNW 26.5 mph 34.5 mph N/A Rain Light Freezing Rain
10:35 AM 19.4 °F 1.4 °F 19.4 °F 100% 30.24 in 3.0 mi NNW 26.5 mph - N/A Rain Light Freezing Rain
10:55 AM 19.4 °F 1.8 °F 19.4 °F 100% 30.25 in 4.0 mi NNW 25.3 mph - N/A Rain Light Freezing Rain
11:15 AM 19.4 °F 2.5 °F 19.4 °F 100% 30.26 in 2.5 mi NNW 23.0 mph 28.8 mph N/A Rain Light Freezing Rain
11:35 AM 19.4 °F 2.5 °F 19.4 °F 100% 30.27 in 2.0 mi NNW 23.0 mph 27.6 mph N/A Rain Light Freezing Rain
11:55 AM 19.4 °F 3.2 °F 19.4 °F 100% 30.28 in 1.8 mi NW 20.7 mph - N/A Snow Light Snow
12:15 PM 19.4 °F 2.1 °F 19.4 °F 100% 30.28 in 3.0 mi NW 24.2 mph 27.6 mph N/A   Mist
12:35 PM 19.4 °F 1.8 °F 19.4 °F 100% 30.28 in 3.0 mi NNW 25.3 mph 29.9 mph N/A Rain Light Freezing Rain
12:55 PM 19.4 °F 1.4 °F 19.4 °F 100% 30.28 in 3.0 mi NNW 26.5 mph - N/A Rain Light Freezing Rain
1:15 PM 19.4 °F 1.4 °F 19.4 °F 100% 30.29 in 3.0 mi NNW 26.5 mph - N/A Rain Light Freezing Rain
1:35 PM 19.4 °F 2.1 °F 19.4 °F 100% 30.29 in 5.0 mi NNW 24.2 mph - N/A Rain Light Freezing Rain
1:55 PM 19.4 °F 1.8 °F 19.4 °F 100% 30.28 in 5.0 mi NNW 25.3 mph - N/A Rain Light Freezing Rain
2:15 PM 19.4 °F 3.2 °F 19.4 °F 100% 30.29 in 5.0 mi NNW 20.7 mph - N/A Rain Light Freezing Rain
2:35 PM 19.4 °F 1.8 °F 17.6 °F 93% 30.30 in 5.0 mi NW 25.3 mph - N/A Snow Light Snow
2:55 PM 19.4 °F 2.8 °F 17.6 °F 93% 30.31 in 5.0 mi NNW 21.9 mph - N/A Rain Light Freezing Rain
3:15 PM 19.4 °F 2.8 °F 17.6 °F 93% 30.31 in 3.0 mi NNW 21.9 mph 26.5 mph N/A Snow Light Snow
3:35 PM 19.4 °F 3.2 °F 17.6 °F 93% 30.32 in 5.0 mi NNW 20.7 mph - N/A Snow Light Snow
3:55 PM 19.4 °F 2.8 °F 17.6 °F 93% 30.33 in 7.0 mi NNW 21.9 mph - 0.01 in Snow Light Snow
4:15 PM 19.4 °F 3.2 °F 17.6 °F 93% 30.33 in 9.0 mi NNW 20.7 mph - N/A Snow Light Snow
4:35 PM 17.6 °F 1.3 °F 17.6 °F 100% 30.34 in 9.0 mi NW 19.6 mph - N/A Snow Light Snow
4:55 PM 17.6 °F 0.9 °F 17.6 °F 100% 30.34 in 8.0 mi NNW 20.7 mph - 0.01 in Snow Light Snow
5:15 PM 17.6 °F 0.9 °F 17.6 °F 100% 30.34 in 6.0 mi NW 20.7 mph - N/A Snow Light Snow
5:35 PM 17.6 °F 1.3 °F 17.6 °F 100% 30.35 in 8.0 mi NNW 19.6 mph - 0.02 in Snow Light Snow
5:55 PM 17.6 °F 2.2 °F 17.6 °F 100% 30.35 in 8.0 mi NW 17.3 mph - 0.03 in Snow Light Snow
6:15 PM 17.6 °F 2.2 °F 15.8 °F 93% 30.36 in 10.0 mi NW 17.3 mph - 0.01 in Snow Light Snow
6:35 PM 17.6 °F 2.2 °F 15.8 °F 93% 30.36 in 10.0 mi NW 17.3 mph - 0.01 in Snow Light Snow
6:55 PM 15.8 °F 0.3 °F 15.8 °F 100% 30.37 in 10.0 mi NNW 16.1 mph - 0.03 in Snow Light Snow
7:15 PM 15.8 °F 0.9 °F 15.8 °F 100% 30.36 in 10.0 mi NNW 15.0 mph - 0.01 in Snow Light Snow
7:35 PM 15.8 °F 2.1 °F 15.8 °F 100% 30.36 in 10.0 mi NW 12.7 mph - 0.02 in Snow Light Snow
7:55 PM 15.8 °F 1.4 °F 14.0 °F 93% 30.36 in 10.0 mi NW 13.8 mph - 0.03 in Snow Light Snow
8:15 PM 14.0 °F 0.5 °F 14.0 °F 100% 30.37 in 10.0 mi NW 11.5 mph - N/A Snow Light Snow
8:35 PM 14.0 °F 0.5 °F 14.0 °F 100% 30.37 in 10.0 mi NW 11.5 mph - N/A Snow Light Snow
8:55 PM 14.0 °F 1.2 °F 14.0 °F 100% 30.38 in 10.0 mi NW 10.4 mph - N/A Snow Light Snow
9:15 PM 14.0 °F 0.5 °F 14.0 °F 100% 30.38 in 10.0 mi NW 11.5 mph - N/A Snow Light Snow
9:35 PM 14.0 °F 1.2 °F 14.0 °F 100% 30.37 in 10.0 mi NNW 10.4 mph - N/A Snow Light Snow
9:55 PM 14.0 °F 1.2 °F 12.2 °F 93% 30.37 in 10.0 mi NNW 10.4 mph - N/A Snow Light Snow
10:15 PM 14.0 °F 2.9 °F 12.2 °F 93% 30.38 in 10.0 mi NW 8.1 mph - N/A Snow Light Snow
10:35 PM 14.0 °F 3.9 °F 14.0 °F 100% 30.39 in 10.0 mi WNW 6.9 mph - N/A Snow Light Snow
10:55 PM 14.0 °F 2.0 °F 14.0 °F 100% 30.38 in 10.0 mi NW 9.2 mph - N/A Snow Light Snow
11:15 PM 14.0 °F 2.9 °F 14.0 °F 100% 30.39 in 10.0 mi WNW 8.1 mph - N/A Snow Light Snow
11:35 PM 14.0 °F 3.9 °F 14.0 °F 100% 30.40 in 10.0 mi WNW 6.9 mph - N/A Snow Light Snow
11:55 PM 14.0 °F 2.9 °F 12.2 °F 93% 30.40 in 10.0 mi WNW 8.1 mph - N/A Snow Light Snow